Location: Central Coast NSW, Australia
(33.2407°S, 151.4316°E)
Time: 22:27:24
(UTC+10:00)

Hubble Space Telescope - Visible Passes

Search period start: 21 April 2024 00:00
Search period end: 01 May 2024 00:00
Orbit: 513 x 517 km, 28.5° (Epoch: 21 April)

Date Brightness Start Highest point End Pass type
(mag) Time Alt. Az. Time Alt. Az. Time Alt. Az.
21 Apr 3.0 03:58:46 21° ENE 03:58:46 21° ENE 04:00:22 10° ENE visible
21 Apr 1.7 05:33:38 12° WNW 05:36:58 37° N 05:40:42 10° ENE visible
22 Apr 3.7 03:41:43 13° ENE 03:41:43 13° ENE 03:42:13 10° ENE visible
22 Apr 1.7 05:16:35 20° WNW 05:18:47 35° N 05:22:29 10° ENE visible
23 Apr 1.8 04:59:31 28° NW 05:00:35 33° N 05:04:14 10° NE visible
24 Apr 1.9 04:42:28 30° N 04:42:28 30° N 04:45:57 10° NE visible
25 Apr 2.5 04:25:25 23° NNE 04:25:25 23° NNE 04:27:37 10° NE visible
26 Apr 3.3 04:08:23 15° NNE 04:08:23 15° NNE 04:09:15 10° NE visible
